Tracking 30923 objects as of 1-Jul-2025
HD Live streaming from Space Station
objects crossing your sky now

COSMOS 2559 (GLONASS)

Track COSMOS 2559 (GLONASS) now!
COSMOS 2559 (GLONASS) is classified as:


NORAD ID: 54031
Int'l Code: 2022-130A
Perigee: 19,105.7 km
Apogee: 19,168.4 km
Inclination: 64.5 °
Period: 675.7 minutes
Semi major axis: 25508 km
RCS: Unknown
Launch date: October 10, 2022
Source: Commonwealth of Independent States (former USSR) (CIS)
Launch site: PLESETSK MISSILE AND SPACE COMPLEX (PKMTR)
SV: 707K
Your satellite tracking list
STARLINK-30089
Track 1 satellite(s)




NASA's NSSDC Master Catalog

Two Line Element Set (TLE):
1 54031U 22130A   25180.98220401 -.00000073  00000-0  00000-0 0  9994
2 54031  64.4730 326.9675 0012289 178.2505 181.7487  2.13101635 21187
Source of the keplerian elements: AFSPC